sat.trackr.live / text

‹ back to catalog

STARLINK-31406

NORAD 59017 · 2024-036V

PAYLOAD ACTIVE UNKNOWN

§ Identity

Operator
Country
US
Launch date
2024-02-23
Launch site
AFWTR
Launch vehicle
Mass (kg)
RCS (m²)

Purposes: comms

External: N2YO · Heavens-Above · Gunter

§ Orbital elements

Epoch: 2026-09-20T08:18:21.275712Z

Period
93.85 min
Inclination
53.1604°
Eccentricity
0.0001352
Mean motion
15.34393018 rev/d
Perigee alt
461.8 km
Apogee alt
463.6 km
Semi-major
6,840.9 km
B*
4.2676e-5
RAAN
236.3953°
Arg perigee
85.7633°
Mean anomaly
274.3524°
Rev number
14,537

§ Raw data

STARLINK-314061 59017U 24036V   26263.34607958  .00001065  00000+0  42676-4 0  99982 59017  53.1604 236.3953 0001352  85.7633 274.3524 15.34393018145371

JSON: /api/v1/satellites/59017 · /tle

For live sub-satellite position, see the globe view (requires WebGL).

§ Visibility from observer

Set your observer location to see the next 7 days of passes ≥ 10°. The values pass through the URL so the page stays shareable.

No JS? Fill the form by hand. The geolocation button needs JavaScript.